Weather History for Kansas City, MO

Change the Weather History Date:

Sunday, December 8, 2013

  Actual Average Record
Temperature  
Mean Temperature 22 °F -  
Max Temperature 24 °F 43 °F 62 °F (2008)
Min Temperature 19 °F 28 °F 6 °F (2005)
Degree Days  
Heating Degree Days 44    
Moisture  
Dew Point 16 °F    
Average Humidity 77    
Maximum Humidity 88    
Minimum Humidity 46    
Precipitation  
Precipitation 0.02 in - - ()
Sea Level Pressure  
Sea Level Pressure 30.13 in    
Wind  
Wind Speed 7 mph (ESE)    
Max Wind Speed 12 mph    
Max Gust Speed 17 mph    
Visibility 4 miles    
Events Snow    
Averages and records for this station are not official NWS values.
T = Trace of Precipitation, MM = Missing Value Source: NWS Daily Summary

Daily Weather History Graph

Daily Weather History Graph

Search for Another Location

Airport:

Trip Planner

Search our weather history database for the weather conditions in past years. The results will help you decide how hot, cold, wet, or windy it might be!

Date:

Astronomy

Dec. 08, 2013 Rise Set
Actual Time 7:25 AM CST 4:55 PM CST
Civil Twilight 6:55 AM CST 5:25 PM CST
Nautical Twilight 6:21 AM CST 5:58 PM CST
Astronomical Twilight 5:49 AM CST 6:31 PM CST
Moon 11:48 AM CST (12/8) 11:43 PM CST (12/8)
Length of Visible Light 10h 30m
Length of Day
9h 30m
Waxing Crescent, 40% of the Moon is Illuminated
Dec 8
Waxing Crescent
Dec 9
First Quarter
Dec 17
Full
Dec 25
Last Quarter
Jan 1
New

Hourly Weather History & Observations

Time (CST) Temp. Windchill Dew Point Humidity Pressure Visibility Wind Dir Wind Speed Gust Speed Precip Events Conditions
12:54 AM 21.0 °F 10.6 °F 3.0 °F 46% 30.39 in 10.0 mi East 9.2 mph - N/A   Overcast
1:54 AM 19.9 °F 9.3 °F 3.0 °F 48% 30.36 in 10.0 mi East 9.2 mph - N/A   Overcast
2:54 AM 19.9 °F 9.3 °F 5.0 °F 52% 30.33 in 10.0 mi East 9.2 mph - N/A   Overcast
3:54 AM 19.9 °F 7.9 °F 7.0 °F 57% 30.29 in 10.0 mi East 11.5 mph - N/A   Overcast
4:54 AM 19.0 °F 7.5 °F 10.0 °F 68% 30.25 in 7.0 mi East 10.4 mph - 0.00 in   Overcast
5:54 AM 19.0 °F 6.8 °F 10.0 °F 68% 30.23 in 10.0 mi East 11.5 mph - 0.00 in   Overcast
6:54 AM 19.0 °F 6.8 °F 10.0 °F 68% 30.21 in 9.0 mi East 11.5 mph - N/A   Overcast
7:49 AM 19.4 °F 9.5 °F 12.2 °F 74% 30.15 in 1.8 mi ESE 8.1 mph - 0.00 in Snow Light Snow
7:54 AM 19.0 °F 9.0 °F 12.0 °F 74% 30.19 in 1.5 mi East 8.1 mph - 0.00 in Snow Light Snow
8:38 AM 19.4 °F 10.4 °F 14.0 °F 80% 30.16 in 0.8 mi ESE 6.9 mph - 0.01 in Snow Light Snow
8:54 AM 19.9 °F 12.1 °F 15.1 °F 81% 30.19 in 0.5 mi ESE 5.8 mph - 0.02 in Snow Snow
9:30 AM 19.4 °F 9.5 °F 15.8 °F 86% 30.14 in 0.5 mi ESE 8.1 mph - 0.00 in Snow Snow
9:54 AM 21.0 °F 12.4 °F 15.1 °F 78% 30.17 in 0.5 mi ESE 6.9 mph - 0.00 in   Haze
10:01 AM 21.2 °F 11.7 °F 15.8 °F 80% 30.14 in 1.8 mi ESE 8.1 mph - N/A   Haze
10:21 AM 21.2 °F 12.6 °F 15.8 °F 80% 30.14 in 2.0 mi SE 6.9 mph - N/A   Haze
10:54 AM 21.9 °F 15.7 °F 16.0 °F 78% 30.15 in 3.0 mi ESE 4.6 mph - N/A   Haze
11:41 AM 21.2 °F 14.9 °F 17.6 °F 86% 30.08 in 3.0 mi SE 4.6 mph - N/A   Haze
11:54 AM 21.9 °F 14.5 °F 16.0 °F 78% 30.10 in 4.0 mi SE 5.8 mph - N/A   Haze
12:04 PM 21.2 °F 14.9 °F 15.8 °F 80% 30.07 in 5.0 mi SE 4.6 mph - N/A   Haze
12:38 PM 23.0 °F - 17.6 °F 80% 30.06 in 4.0 mi Calm Calm - N/A   Haze
12:54 PM 23.0 °F 18.4 °F 17.1 °F 78% 30.07 in 3.0 mi ESE 3.5 mph - N/A   Haze
1:37 PM 23.0 °F 18.4 °F 17.6 °F 80% 30.01 in 4.0 mi ESE 3.5 mph - N/A   Haze
1:54 PM 23.0 °F - 18.0 °F 81% 30.04 in 5.0 mi Calm Calm - N/A   Haze
2:29 PM 24.8 °F - 17.6 °F 74% 30.00 in 5.0 mi Calm Calm - N/A   Haze
2:38 PM 24.8 °F - 17.6 °F 74% 30.00 in 5.0 mi Calm Calm - N/A   Haze
2:54 PM 24.1 °F - 18.0 °F 77% 30.03 in 5.0 mi Calm Calm - N/A   Haze
3:54 PM 24.1 °F - 18.0 °F 77% 30.04 in 4.0 mi Calm Calm - N/A   Haze
4:32 PM 24.8 °F - 19.4 °F 80% 30.01 in 2.5 mi Calm Calm - N/A   Haze
4:54 PM 24.1 °F - 19.0 °F 81% 30.06 in 2.5 mi Calm Calm - N/A   Haze
5:13 PM 24.8 °F 20.5 °F 19.4 °F 80% 30.04 in 2.5 mi WNW 3.5 mph - N/A   Overcast
5:54 PM 24.1 °F 18.2 °F 21.0 °F 88% 30.09 in 2.0 mi West 4.6 mph - N/A   Overcast
6:25 PM 24.8 °F 20.5 °F 21.2 °F 86% 30.06 in 2.0 mi WNW 3.5 mph - N/A   Overcast
6:32 PM 24.8 °F 20.5 °F 21.2 °F 86% 30.06 in 2.5 mi West 3.5 mph - N/A   Overcast
6:50 PM 24.8 °F 19.1 °F 21.2 °F 86% 30.07 in 1.8 mi WNW 4.6 mph - 0.00 in Snow Light Snow
6:54 PM 24.1 °F 19.7 °F 19.9 °F 84% 30.11 in 1.5 mi West 3.5 mph - 0.00 in Snow Light Snow
6:58 PM 24.8 °F 20.5 °F 19.4 °F 80% 30.07 in 1.5 mi WNW 3.5 mph - 0.00 in Snow Light Snow
7:10 PM 24.8 °F - 19.4 °F 80% 30.07 in 3.0 mi Calm Calm - 0.00 in Snow Light Snow
7:54 PM 24.1 °F 19.7 °F 19.0 °F 81% 30.12 in 6.0 mi West 3.5 mph - 0.00 in   Haze
8:54 PM 24.1 °F 17.0 °F 19.0 °F 81% 30.14 in 7.0 mi WNW 5.8 mph - N/A   Overcast
9:54 PM 21.9 °F 17.2 °F 18.0 °F 85% 30.15 in 6.0 mi West 3.5 mph - N/A   Scattered Clouds
10:02 PM 23.0 °F 18.4 °F 17.6 °F 80% 30.12 in 6.0 mi West 3.5 mph - N/A   Haze
10:18 PM 21.2 °F 16.4 °F 17.6 °F 86% 30.13 in 6.0 mi West 3.5 mph - N/A   Mostly Cloudy
10:54 PM 21.9 °F 14.5 °F 18.0 °F 85% 30.19 in 7.0 mi West 5.8 mph - N/A   Scattered Clouds
11:03 PM 21.2 °F 10.1 °F 17.6 °F 86% 30.16 in 7.0 mi WNW 10.4 mph 17.3 mph N/A   Mostly Cloudy
11:24 PM 21.2 °F 10.9 °F 15.8 °F 80% 30.17 in 7.0 mi WNW 9.2 mph - N/A   Overcast
11:54 PM 19.9 °F 10.1 °F 14.0 °F 78% 30.22 in 7.0 mi NW 8.1 mph - N/A   Scattered Clouds